Muskogee, OK

8:24 PM CDT on September 28, 2016 (GMT -0500)
Davis

Weather History for KMKO - October, 2012

Change the Weather History Date:

Saturday, October 13, 2012

  Actual Average Record
Temperature  
Mean Temperature 68 °F -  
Max Temperature 78 °F 72 °F 86 °F (1999)
Min Temperature 62 °F 48 °F 34 °F (2006)
Cooling Degree Days 4    
Growing Degree Days 18 (Base 50)    
Moisture  
Dew Point 65 °F    
Average Humidity 89    
Maximum Humidity 100    
Minimum Humidity 73    
Precipitation  
Precipitation 0.24 in - - ()
Sea Level Pressure  
Sea Level Pressure 29.94 in    
Wind  
Wind Speed 11 mph (SSE)    
Max Wind Speed 18 mph    
Max Gust Speed 30 mph    
Visibility 6 miles    
Events Rain , Thunderstorm    
Averages and records for this station are not official NWS values.
T = Trace of Precipitation, MM = Missing Value Source: NWS Daily Summary

Daily Weather History Graph

Daily Weather History Graph

Search for Another Location

Airport or City:

Trip Planner

Search our weather history database for the weather conditions in past years. The results will help you decide how hot, cold, wet, or windy it might be!

Date:

Astronomy

Oct. 13, 2012 Rise Set
Actual Time 7:26 AM CDT 6:47 PM CDT
Civil Twilight 7:01 AM CDT 7:13 PM CDT
Nautical Twilight 6:31 AM CDT 7:43 PM CDT
Astronomical Twilight 6:01 AM CDT 8:12 PM CDT
Moon 5:20 AM CDT (10/13) 5:30 PM CDT (10/13)
Length of Visible Light 12h 12m
Length of Day
11h 21m
Waning Crescent, 5% of the Moon is Illuminated
Oct 13
Waning Crescent
Oct 15
New
Oct 21
First Quarter
Oct 29
Full
Nov 6
Last Quarter

Hourly Weather History & Observations

Time (CDT) Temp. Dew Point Humidity Pressure Visibility Wind Dir Wind Speed Gust Speed Precip Events Conditions
12:13 AM 62.6 °F 62.6 °F 100% 30.09 in 5.0 mi SSE 9.2 mph - N/A   Scattered Clouds
12:24 AM 62.6 °F 62.6 °F 100% 30.09 in 5.0 mi SSE 8.1 mph - N/A   Mostly Cloudy
12:42 AM 64.4 °F 62.6 °F 94% 30.08 in 4.0 mi SE 9.2 mph - N/A   Overcast
12:53 AM 63.0 °F 63.0 °F 100% 30.07 in 3.0 mi SE 9.2 mph - N/A   Overcast
1:19 AM 64.4 °F 62.6 °F 94% 30.08 in 2.5 mi SE 10.4 mph - N/A   Overcast
1:44 AM 64.4 °F 62.6 °F 94% 30.07 in 1.8 mi SSE 11.5 mph - N/A   Overcast
1:53 AM 64.0 °F 63.0 °F 96% 30.05 in 2.0 mi SE 10.4 mph - N/A   Overcast
2:23 AM 64.4 °F 62.6 °F 94% 30.05 in 3.0 mi SE 10.4 mph 19.6 mph N/A   Overcast
2:53 AM 64.0 °F 63.0 °F 96% 30.04 in 3.0 mi SE 11.5 mph - N/A   Overcast
3:53 AM 64.0 °F 63.0 °F 96% 30.04 in 2.5 mi SSE 10.4 mph - N/A   Overcast
4:53 AM 64.0 °F 63.0 °F 96% 30.05 in 3.0 mi SSE 10.4 mph - N/A   Overcast
5:53 AM 64.0 °F 63.0 °F 96% 30.04 in 3.0 mi SE 10.4 mph - N/A   Overcast
6:53 AM 64.0 °F 63.0 °F 96% 30.02 in 4.0 mi SSE 12.7 mph 18.4 mph N/A   Mostly Cloudy
7:40 AM 64.4 °F 62.6 °F 94% 30.03 in 2.5 mi SSE 11.5 mph - N/A   Clear
7:51 AM 64.4 °F 62.6 °F 94% 30.04 in 3.0 mi SSE 9.2 mph - N/A   Clear
7:53 AM 64.0 °F 63.0 °F 96% 30.03 in 3.0 mi SSE 10.4 mph - N/A   Clear
8:53 AM 66.0 °F 64.0 °F 93% 30.02 in 5.0 mi SSE 11.5 mph - N/A   Scattered Clouds
9:53 AM 70.0 °F 66.0 °F 87% 30.00 in 8.0 mi SSE 11.5 mph 19.6 mph N/A   Partly Cloudy
10:18 AM 71.6 °F 66.2 °F 83% 30.01 in 9.0 mi SSE 15.0 mph 20.7 mph N/A   Mostly Cloudy
10:53 AM 73.0 °F 66.0 °F 79% 30.00 in 10.0 mi South 15.0 mph 23.0 mph N/A   Overcast
11:53 AM 73.9 °F 66.0 °F 76% 29.95 in 10.0 mi South 17.3 mph 29.9 mph N/A   Overcast
12:53 PM 75.0 °F 66.0 °F 73% 29.91 in 10.0 mi South 18.4 mph 26.5 mph N/A   Overcast
1:53 PM 75.0 °F 66.9 °F 76% 29.89 in 10.0 mi South 13.8 mph 25.3 mph N/A   Overcast
3:53 PM 75.9 °F 68.0 °F 76% 29.83 in 10.0 mi SSE 11.5 mph 23.0 mph N/A   Overcast
4:14 PM 75.2 °F 68.0 °F 78% 29.84 in 10.0 mi SSE 12.7 mph 19.6 mph N/A   Overcast
4:53 PM 75.0 °F 68.0 °F 79% 29.80 in 10.0 mi SSE 15.0 mph - 0.00 in Rain Light Rain
5:03 PM 75.2 °F 68.0 °F 78% 29.81 in 10.0 mi SSE 10.4 mph - 0.00 in Thunderstorm Thunderstorm
5:13 PM 73.4 °F 69.8 °F 88% 29.83 in 1.8 mi South 10.4 mph - 0.10 in Rain , Thunderstorm Heavy Thunderstorms and Rain
5:25 PM 71.6 °F 69.8 °F 94% 29.81 in 3.0 mi SSE 8.1 mph - 0.13 in Rain , Thunderstorm Light Thunderstorms and Rain
5:53 PM 73.0 °F 69.1 °F 87% 29.79 in 10.0 mi SSE 15.0 mph 21.9 mph 0.13 in Rain Light Rain
7:53 PM 71.1 °F 69.1 °F 93% 29.78 in 9.0 mi SSE 11.5 mph - 0.02 in Rain , Thunderstorm Light Thunderstorms and Rain
8:10 PM 71.6 °F 68.0 °F 88% 29.80 in 9.0 mi South 10.4 mph - 0.00 in Rain , Thunderstorm Light Thunderstorms and Rain
9:03 PM 69.8 °F 66.2 °F 88% 29.79 in 4.0 mi South 17.3 mph 28.8 mph 0.04 in Rain Rain
9:37 PM 66.2 °F 64.4 °F 94% 29.80 in 10.0 mi South 16.1 mph 24.2 mph 0.09 in Rain , Thunderstorm Light Thunderstorms and Rain
9:53 PM 66.9 °F 63.0 °F 87% 29.78 in 10.0 mi SSW 13.8 mph 25.3 mph 0.09 in Thunderstorm Thunderstorm
10:01 PM 66.2 °F 62.6 °F 88% 29.78 in 10.0 mi South 11.5 mph - N/A Thunderstorm Mostly Cloudy
10:29 PM 66.2 °F 62.6 °F 88% 29.75 in 10.0 mi South 8.1 mph - N/A   Partly Cloudy